When you browse on this site, cookies collect data to enhance your experience and personalize the content and advertising you see.
Visit our Privacy Policy to learn more. By continuing to use the site, you agree to this use of cookies and data.
  • En España
  • Lista de países
  • Para 7 días
  • Temperatura del agua
  • El tiempo en el mapa
  • Informadores
  • user-avatar
    Iniciar sesión

    Tiempo cada hora Río Gallegos

    Hoy, 8 Diciembre, Domingo

    Tiempo Temperatura Precipitaciones Viento Presión Humedad
    00:00 +7°C° 0 mm 6 mps 753 mmHg 80%
    01:00 +7°C° 0 mm 5 mps 753 mmHg 81%
    02:00 +7°C° 0 mm 5 mps 753 mmHg 81%
    03:00 +7°C° 0 mm 4 mps 753 mmHg 80%
    04:00 +7°C° 0 mm 4 mps 753 mmHg 79%
    05:00 +8°C° 0.5 mm 4 mps 753 mmHg 79%
    06:00 +8°C° 0.5 mm 4 mps 753 mmHg 79%
    07:00 +10°C° 0.5 mm 4 mps 752 mmHg 79%
    08:00 +10°C° 0.2 mm 5 mps 752 mmHg 74%
    09:00 +11°C° 0.2 mm 7 mps 751 mmHg 68%
    10:00 +12°C° 0.2 mm 8 mps 751 mmHg 63%
    11:00 +13°C° 0.9 mm 6 mps 750 mmHg 69%
    12:00 +12°C° 0.9 mm 4 mps 749 mmHg 75%
    13:00 +13°C° 0.9 mm 2 mps 749 mmHg 81%
    14:00 +11°C° 1.2 mm 4 mps 748 mmHg 83%
    15:00 +10°C° 1.2 mm 6 mps 747 mmHg 85%
    16:00 +10°C° 1.2 mm 8 mps 747 mmHg 87%
    17:00 +11°C° 0.4 mm 8 mps 746 mmHg 81%
    18:00 +12°C° 0.4 mm 7 mps 745 mmHg 76%
    19:00 +14°C° 0.4 mm 7 mps 745 mmHg 71%
    20:00 +13°C° 0 mm 8 mps 744 mmHg 67%
    21:00 +13°C° 0 mm 8 mps 744 mmHg 64%
    22:00 +13°C° 0 mm 9 mps 744 mmHg 61%
    23:00 +12°C° 0 mm 7 mps 744 mmHg 64%

    Mañana, 9 Diciembre, Lunes

    Tiempo Temperatura Precipitaciones Viento Presión Humedad
    00:00 +13°C° 0 mm 6 mps 743 mmHg 67%
    01:00 +12°C° 0 mm 4 mps 742 mmHg 70%
    02:00 +12°C° 0 mm 4 mps 742 mmHg 69%
    03:00 +13°C° 0 mm 5 mps 742 mmHg 69%
    04:00 +13°C° 0 mm 5 mps 742 mmHg 68%
    05:00 +13°C° 0.1 mm 6 mps 742 mmHg 65%
    06:00 +12°C° 0.1 mm 8 mps 742 mmHg 62%
    07:00 +12°C° 0.1 mm 10 mps 742 mmHg 59%
    08:00 +13°C° 0 mm 12 mps 741 mmHg 53%
    09:00 +13°C° 0 mm 14 mps 741 mmHg 48%
    10:00 +14°C° 0 mm 15 mps 741 mmHg 42%
    11:00 +14°C° 0 mm 16 mps 741 mmHg 42%
    12:00 +14°C° 0 mm 17 mps 742 mmHg 42%
    13:00 +14°C° 0 mm 18 mps 742 mmHg 42%
    14:00 +12°C° 0 mm 18 mps 742 mmHg 43%
    15:00 +11°C° 0 mm 19 mps 743 mmHg 44%
    16:00 +11°C° 0 mm 19 mps 744 mmHg 45%
    17:00 +10°C° 0 mm 18 mps 744 mmHg 47%
    18:00 +7°C° 0 mm 17 mps 745 mmHg 48%
    19:00 +6°C° 0 mm 16 mps 746 mmHg 50%
    20:00 +6°C° 0 mm 15 mps 747 mmHg 53%
    21:00 +5°C° 0 mm 14 mps 747 mmHg 56%
    22:00 +4°C° 0 mm 14 mps 748 mmHg 59%
    23:00 +4°C° 0 mm 13 mps 749 mmHg 60%

    Pasado mañana, 10 Diciembre, Martes

    Tiempo Temperatura Precipitaciones Viento Presión Humedad
    00:00 +4°C° 0 mm 12 mps 749 mmHg 60%
    01:00 +3°C° 0 mm 12 mps 749 mmHg 61%
    02:00 +3°C° 0 mm 12 mps 750 mmHg 62%
    03:00 +3°C° 0 mm 11 mps 750 mmHg 62%
    04:00 +3°C° 0 mm 11 mps 751 mmHg 62%
    05:00 +4°C° 0 mm 12 mps 751 mmHg 59%
    06:00 +5°C° 0 mm 12 mps 751 mmHg 55%
    07:00 +7°C° 0 mm 13 mps 751 mmHg 52%
    08:00 +8°C° 0 mm 12 mps 751 mmHg 50%
    09:00 +9°C° 0 mm 11 mps 751 mmHg 48%
    10:00 +11°C° 0 mm 11 mps 751 mmHg 45%
    11:00 +11°C° 0 mm 10 mps 751 mmHg 44%
    12:00 +12°C° 0 mm 9 mps 751 mmHg 42%
    13:00 +13°C° 0 mm 9 mps 751 mmHg 41%
    14:00 +13°C° 0 mm 8 mps 750 mmHg 41%
    15:00 +14°C° 0 mm 7 mps 750 mmHg 40%
    16:00 +14°C° 0 mm 7 mps 750 mmHg 40%
    17:00 +12°C° 0 mm 7 mps 750 mmHg 44%
    18:00 +11°C° 0 mm 8 mps 751 mmHg 47%
    19:00 +10°C° 0 mm 8 mps 751 mmHg 51%
    20:00 +9°C° 0 mm 7 mps 751 mmHg 55%
    21:00 +8°C° 0 mm 5 mps 751 mmHg 59%
    22:00 +7°C° 0 mm 4 mps 751 mmHg 63%
    23:00 +7°C° 0 mm 4 mps 751 mmHg 65%

    11 Diciembre, Miércoles

    Tiempo Temperatura Precipitaciones Viento Presión Humedad
    00:00 +6°C° 0 mm 4 mps 751 mmHg 68%
    01:00 +6°C° 0 mm 4 mps 751 mmHg 70%
    02:00 +6°C° 0 mm 4 mps 752 mmHg 71%
    03:00 +5°C° 0 mm 5 mps 752 mmHg 72%
    04:00 +4°C° 0 mm 6 mps 752 mmHg 73%
    05:00 +5°C° 0 mm 6 mps 752 mmHg 69%
    06:00 +7°C° 0 mm 6 mps 752 mmHg 64%
    07:00 +8°C° 0 mm 6 mps 753 mmHg 59%
    08:00 +9°C° 0 mm 6 mps 753 mmHg 56%
    09:00 +9°C° 0 mm 6 mps 753 mmHg 53%
    10:00 +10°C° 0 mm 6 mps 753 mmHg 50%
    11:00 +11°C° 0 mm 6 mps 753 mmHg 48%
    12:00 +11°C° 0 mm 6 mps 753 mmHg 46%
    13:00 +13°C° 0 mm 6 mps 753 mmHg 43%
    14:00 +13°C° 0 mm 6 mps 754 mmHg 44%
    15:00 +13°C° 0 mm 6 mps 754 mmHg 44%
    16:00 +13°C° 0 mm 6 mps 754 mmHg 44%
    17:00 +11°C° 0 mm 6 mps 754 mmHg 47%
    18:00 +11°C° 0 mm 7 mps 755 mmHg 50%
    19:00 +10°C° 0 mm 7 mps 755 mmHg 54%
    20:00 +9°C° 0 mm 6 mps 756 mmHg 56%
    21:00 +9°C° 0 mm 5 mps 756 mmHg 59%
    22:00 +8°C° 0 mm 4 mps 757 mmHg 62%
    23:00 +7°C° 0 mm 5 mps 757 mmHg 64%

    12 Diciembre, Jueves

    Tiempo Temperatura Precipitaciones Viento Presión Humedad
    00:00 +7°C° 0 mm 5 mps 757 mmHg 66%
    01:00 +7°C° 0 mm 5 mps 758 mmHg 67%
    02:00 +7°C° 0 mm 5 mps 758 mmHg 68%
    03:00 +6°C° 0 mm 5 mps 758 mmHg 68%
    04:00 +6°C° 0 mm 5 mps 758 mmHg 68%
    05:00 +7°C° 0 mm 5 mps 758 mmHg 63%
    06:00 +8°C° 0 mm 6 mps 759 mmHg 59%
    07:00 +9°C° 0 mm 6 mps 759 mmHg 54%
    08:00 +9°C° 0 mm 6 mps 758 mmHg 52%
    09:00 +10°C° 0 mm 6 mps 758 mmHg 49%
    10:00 +12°C° 0 mm 5 mps 758 mmHg 46%
    11:00 +12°C° 0 mm 5 mps 758 mmHg 46%
    12:00 +12°C° 0 mm 5 mps 757 mmHg 45%
    13:00 +13°C° 0 mm 5 mps 757 mmHg 44%
    14:00 +13°C° 0 mm 4 mps 757 mmHg 44%
    15:00 +13°C° 0 mm 3 mps 756 mmHg 43%
    16:00 +13°C° 0 mm 3 mps 756 mmHg 42%
    17:00 +13°C° 0 mm 3 mps 756 mmHg 45%
    18:00 +13°C° 0 mm 3 mps 755 mmHg 48%
    19:00 +12°C° 0 mm 3 mps 755 mmHg 50%
    20:00 +11°C° 0 mm 4 mps 755 mmHg 55%
    21:00 +10°C° 0 mm 4 mps 755 mmHg 60%
    22:00 +8°C° 0 mm 5 mps 755 mmHg 65%
    23:00 +8°C° 0 mm 6 mps 755 mmHg 65%

    13 Diciembre, Viernes

    Tiempo Temperatura Precipitaciones Viento Presión Humedad
    00:00 +8°C° 0 mm 6 mps 754 mmHg 65%
    01:00 +8°C° 0 mm 6 mps 754 mmHg 66%
    02:00 +8°C° 0 mm 7 mps 753 mmHg 67%
    03:00 +8°C° 0 mm 7 mps 753 mmHg 68%
    04:00 +8°C° 0 mm 7 mps 752 mmHg 69%
    05:00 +10°C° 0 mm 7 mps 752 mmHg 64%
    06:00 +11°C° 0 mm 6 mps 752 mmHg 59%
    07:00 +14°C° 0 mm 5 mps 752 mmHg 54%
    08:00 +14°C° 0 mm 5 mps 752 mmHg 50%
    09:00 +15°C° 0 mm 5 mps 751 mmHg 46%
    10:00 +15°C° 0 mm 5 mps 751 mmHg 43%
    11:00 +17°C° 0 mm 4 mps 751 mmHg 41%
    12:00 +17°C° 0 mm 3 mps 750 mmHg 39%
    13:00 +17°C° 0 mm 2 mps 750 mmHg 37%
    14:00 +17°C° 0.2 mm 3 mps 750 mmHg 44%
    15:00 +16°C° 0.2 mm 3 mps 750 mmHg 50%
    16:00 +14°C° 0.2 mm 3 mps 750 mmHg 57%
    17:00 +13°C° 0.3 mm 3 mps 750 mmHg 60%
    18:00 +14°C° 0.3 mm 2 mps 750 mmHg 64%
    19:00 +13°C° 0.3 mm 2 mps 750 mmHg 68%
    20:00 +13°C° 0.2 mm 2 mps 750 mmHg 69%
    21:00 +13°C° 0.2 mm 2 mps 750 mmHg 70%
    22:00 +13°C° 0.2 mm 2 mps 750 mmHg 71%
    23:00 +11°C° 0.2 mm 3 mps 750 mmHg 73%
    Mostrar más